Weather History for George, South Africa

Change the Weather History Date:

Friday, April 26, 2013

  Actual Average Record
Temperature  
Mean Temperature 78 °F -  
Max Temperature 96 °F 68 °F 96 °F (2013)
Min Temperature 57 °F 50 °F 44 °F (2001)
Cooling Degree Days 13    
Growing Degree Days 28 (Base 50)    
Moisture  
Dew Point 46 °F    
Average Humidity 37    
Maximum Humidity 88    
Minimum Humidity 12    
Precipitation  
Precipitation 0.00 in - - ()
Sea Level Pressure  
Sea Level Pressure 30.02 in    
Wind  
Wind Speed 5 mph ()    
Max Wind Speed 13 mph    
Max Gust Speed -    
Visibility 11.2 miles    
Events      
Averages and records for this station are not official NWS values.
T = Trace of Precipitation, MM = Missing Value Source: Averaged Metar Reports

Daily Weather History Graph

Daily Weather History Graph

Search for Another Location

Airport:

Trip Planner

Search our weather history database for the weather conditions in past years. The results will help you decide how hot, cold, wet, or windy it might be!

Date:

Astronomy

Apr. 26, 2013 Rise Set
Actual Time 7:01 AM SAST 5:54 PM SAST
Civil Twilight 6:35 AM SAST 6:20 PM SAST
Nautical Twilight 6:06 AM SAST 6:49 PM SAST
Astronomical Twilight 5:37 AM SAST 7:18 PM SAST
Moon 6:27 PM SAST (4/26) 7:32 AM SAST (4/26)
Length of Visible Light 11h 44m
Length of Day
10h 52m
Full, 100% of the Moon is Illuminated
Apr 26
Full
May 2
Last Quarter
May 10
New
May 18
First Quarter
May 25
Full

Hourly Weather History & Observations

Time (SAST) Temp. Heat Index Dew Point Humidity Pressure Visibility Wind Dir Wind Speed Gust Speed Precip Events Conditions
12:00 AM 68.0 °F - 46.4 °F 46% 30.06 in - North 5.8 mph - N/A   Clear
1:00 AM 64.4 °F - 48.2 °F 56% 30.04 in - North 4.6 mph - N/A   Clear
2:00 AM 69 °F - 46 °F 32% 30.04 in 31 mi NNE 4.6 mph - -  
2:00 AM 68.0 °F - 46.4 °F 46% 30.04 in - North 5.8 mph - N/A   Clear
3:00 AM 71.6 °F - 44.6 °F 38% 30.01 in - NNE 3.5 mph - N/A   Clear
4:00 AM 68.0 °F - 44.6 °F 43% 30.01 in - North 4.6 mph - N/A   Clear
5:00 AM 73 °F - 43 °F 23% 30.01 in 12 mi NNE 3.5 mph - -  
5:00 AM 73.4 °F - 42.8 °F 33% 30.01 in - NNE 3.5 mph - N/A   Clear
6:00 AM 71.6 °F - 41.0 °F 33% 30.01 in - North 4.6 mph - N/A   Clear
7:00 AM 75.2 °F - 39.2 °F 27% 30.01 in - North 3.5 mph - N/A   Clear
8:00 AM 76 °F - 43 °F 20% 30.01 in 12 mi North 4.6 mph - -   Clear
8:00 AM 77.0 °F - 42.8 °F 29% 30.01 in - North 4.6 mph - N/A   Clear
9:00 AM 82.4 °F 81.4 °F 53.6 °F 37% 30.01 in - Variable 2.3 mph - N/A   Clear
10:00 AM 89.6 °F - 48.2 °F 24% 30.01 in - NNW 6.9 mph - N/A   Clear
11:00 AM 92 °F - 46 °F 12% 30.02 in 12 mi NNW 6.9 mph - -   Clear
11:00 AM 93.2 °F - 46.4 °F 20% 30.01 in - NNW 6.9 mph - N/A   Clear
12:00 PM 95.0 °F - 42.8 °F 16% 30.01 in - NW 11.5 mph - N/A   Clear
1:00 PM 82.4 °F - 51.8 °F 35% 30.01 in - South 12.7 mph - N/A   Clear
2:00 PM 80 °F - 54 °F 30% 30.00 in 12 mi South 11.5 mph - -   Clear
2:00 PM 80.6 °F 80.3 °F 53.6 °F 39% 29.98 in - South 11.5 mph - N/A   Clear
3:00 PM 77.0 °F - 48.2 °F 36% 30.01 in - SSW 10.4 mph - N/A   Clear
4:00 PM 77.0 °F - 44.6 °F 32% 30.01 in - SW 5.8 mph - N/A   Clear
5:00 PM 76 °F - 44 °F 21% 30.04 in 12 mi WSW 4.6 mph - -   Clear
6:00 PM 71.6 °F - 48.2 °F 43% 30.04 in - Variable 1.2 mph - N/A   Clear
7:00 PM 66.2 °F - 44.6 °F 46% 30.04 in - NNE 4.6 mph - N/A   Clear
8:00 PM 65 °F - 44 °F 36% 30.06 in 12 mi NNE 4.6 mph - -   Clear
8:00 PM 66.2 °F - 44.6 °F 46% 30.04 in - NNE 2.3 mph - N/A   Clear
9:00 PM 60.8 °F - 46.4 °F 59% 30.04 in - NW 4.6 mph - N/A   Clear
10:00 PM 60.8 °F - 46.4 °F 59% 30.06 in - SSW 5.8 mph - N/A   Clear
11:00 PM 57.2 °F - 53.6 °F 88% 30.06 in 6.2 mi SSE 3.5 mph - N/A   Partly Cloudy